Regional Weather Roundup
Issued by NWS

Home | Current Version | Previous Version | Graphics & Text | Print | Product List | Glossary On
Versions: 1 2 3 4 5 6 7 8 9 10 11 12 13 14 15 16 17 18 19 20 21 22 23 24 25 26 27
000
ASUS45 KTFX 190310
RWRMT
MONTANA REGIONAL WEATHER ROUNDUP
NATIONAL WEATHER SERVICE GREAT FALLS MT
800 PM MST SAT FEB 18 2017

NOTE: "FAIR" INDICATES FEW OR NO CLOUDS BELOW 12000 FEET WITH NO
SIGNIFICANT WEATHER AND/OR OBSTRUCTIONS TO VISIBILITY.

MTZ001>007-043-190400-
WEST OF THE DIVIDE

CITY           SKY/WX    TMP DP  RH WIND       PRES   REMARKS
KALISPELL      CLOUDY    36  32  85 E6        29.36S WCI  31
MISSOULA       CLOUDY    39  31  72 NW3       29.35S
BUTTE          CLOUDY    41  28  60 SE10      29.44F
MULLAN PASS    SNOW      31  31 100 VRB3      29.33R VSB 1/2
ANACONDA         N/A     43  30  61 SE12      29.41F
DEER LODGE       N/A     43  32  65 S9        29.43F
EUREKA           N/A     30  28  93 CALM      29.39S
HAMILTON         N/A     48  30  49 S8        29.36S
LIBBY            N/A     32  32 100 CALM      29.37S
PLAINS           N/A     35  27  73 CALM      29.42S
RONAN            N/A     33  29  86 CALM      29.47R
$$

MTZ008-052>055-190400-
SOUTHWEST MONTANA

CITY           SKY/WX    TMP DP  RH WIND       PRES   REMARKS
BOZEMAN        CLOUDY    43  29  57 SE6       29.46F
DILLON         CLOUDY    44  28  53 S12       29.45F
W YELLOWSTONE  CLOUDY    32  32 100 SW8       29.59F WCI  25
ENNIS          MOCLDY    43  28  56 S24G32    29.53F
$$

MTZ009-010-012-014-046-048-049-054-190400-
EAST SLOPES AND CENTRAL MONTANA

CITY           SKY/WX    TMP DP  RH WIND       PRES   REMARKS
CUT BANK       CLOUDY    32  29  88 N3        29.39F
GREAT FALLS    CLOUDY    50  30  46 S17       29.38F
MALMSTROM AFB  CLOUDY    48  32  54 S14       29.39F
HELENA         CLOUDY    49  32  52 S13G20    29.39F
AUGUSTA        MOCLDY    36  31  82 N5        29.37F
BOWMANS CRNR   MOCLDY    44  30  59 SW12      29.35F
CHOTEAU          N/A     36  32  87 W5        29.39F
CONRAD           N/A     36  35  96 CALM      29.46F
POWER          MOCLDY    42  31  66 SE9       29.36F
RAYNESFORD     MOCLDY    47  29  50 SE12      29.40F
ULM            CLOUDY    49  34  54 MISG      29.39S
$$

MTZ011-013-016-021-045-047-050-051-190400-
NORTH CENTRAL MONTANA

CITY           SKY/WX    TMP DP  RH WIND       PRES   REMARKS
HAVRE          CLOUDY    38  33  82 E17       29.42F WCI  28
LEWISTOWN      CLOUDY    42  32  67 E10       29.45F
N BAR RANCH      N/A     41  30  65 E3        29.51F
CHINOOK          N/A     37  32  81 E17G24    29.47F WCI  28
DENTON         MOCLDY    44  31  61 S9        29.40F
FORT BENTON      N/A     46  30  53 MISG      29.40F
GEYSER           N/A     40  29  64 CALM      29.42F
GRASS RANGE      N/A     39  30  70 W3        29.45S
JUDITH GAP       N/A     41  31  68 SE15      29.46F
ROY              N/A     37  31  78 MISG      29.45F
STANFORD       MOCLDY    42  31  66 S18       29.42F
WINIFRED       MOCLDY    45  32  58 SE14      29.43F
$$

MTZ017>020-022>027-061-062-190400-
NORTHEAST MONTANA

CITY           SKY/WX    TMP DP  RH WIND       PRES   REMARKS
GLASGOW        CLEAR     34  30  85 E20G25    29.57F WCI  23
JORDAN           N/A     37  31  78 E7        29.54S WCI  32
SIDNEY         CLEAR     32  30  92 NE9       29.65S WCI  24
WOLF POINT     CLOUDY    33  30  88 E9        29.63F WCI  25
PLENTYWOOD       N/A     34  32  93 N5        29.67F
POPLAR           N/A     32  30  93 NE10      29.65F WCI  24
SCOBEY           N/A     35  26  70 E5        29.65S
$$

MTZ028>42-056>058-190400-
SOUTHCENTRAL AND SOUTHEAST MONTANA

CITY           SKY/WX    TMP DP  RH WIND       PRES   REMARKS
BAKER          CLOUDY    32  29  88 E6        29.60S WCI  26
BILLINGS       CLOUDY    44  34  67 CALM      29.50S
LIVINGSTON     CLOUDY    46  29  51 SW15G21   29.48F
MILES CITY     CLOUDY    40  32  73 NE9       29.55S
BIG TIMBER     CLEAR     43  30  61 VRB3      29.51F
EKALAKA          N/A     41  29  62 SE6       29.60S
FORSYTH          N/A     41  34  75 E6        29.53S
HARLOWTON      MOCLDY    42  32  65 SE6       29.47S
LAUREL           N/A     44  26  49 CALM      29.54S
ROUNDUP          N/A     44  29  56 E1        29.46F
$$

REGIONAL REPORTS...DAKOTAS

CITY           SKY/WX    TMP DP  RH WIND       PRES   REMARKS
WILLISTON      CLOUDY    34  31  88 NE7       29.69R WCI  28
MINOT          CLOUDY    34  32  92 E3        29.73S
DICKINSON      CLEAR     29  28  96 SE5       29.61R
BEACH            N/A    N/A N/A N/A MISG        N/A
CROSBY         CLOUDY    32  32 100 NE5       29.74R
TIOGA            N/A     32  32 100 E10       29.72R WCI  24
WATFORD CITY     N/A     32  32 100 E6        29.68S WCI  26
BISMARCK       CLOUDY    37  34  89 E8        29.68F WCI  31
GRAND FORKS    CLOUDY    36  30  79 CALM      29.81R
FARGO          CLOUDY    36  35  96 E7        29.79S WCI  30
BUFFALO SD       N/A     46  33  60 CALM      29.53S
RAPID CITY     PTCLDY    50  31  48 S3        29.61R
$$

REGIONAL REPORTS...WYOMING/IDAHO/WASHINGTON

CITY           SKY/WX    TMP DP  RH WIND       PRES   REMARKS
GILLETTE       CLOUDY    52  33  48 S25G33    29.57F
SHERIDAN       CLOUDY    36  30  79 SW10      29.54F WCI  28
BUFFALO WY     CLOUDY    47  29  49 S9        29.56F
CODY           CLOUDY    40  31  70 S3        29.56
YELLOWSTONE LA   N/A     31  30  96 CALM      29.63F
IDAHO FALLS    LGT RAIN  41  36  82 S10       29.58F
SALMON         CLOUDY    39  34  81 S8        29.43S
BOISE          RAIN      47  41  80 SW13      29.47R
SPOKANE        FLURRIES  34  32  92 SW14      29.40R WCI  25
$$

REGIONAL REPORTS...ALBERTA

CITY           SKY/WX    TMP DP  RH WIND       PRES   REMARKS
EDMONTON       MIX PCPN  34  32  93 E12       29.51F WCI  25
CALGARY        LGT SNOW  32  30  93 SE12      29.38F WCI  23
LETHBRIDGE     CLOUDY    34  34 100 VRB2      29.39F FOG
MEDICINE HAT   CLOUDY    41  32  70 E7        29.43F
MILK RIVER       N/A     36  32  87 NE2         N/A
ONEFOUR          N/A     36  32  87 E16G22      N/A  WCI  26
$$

REGIONAL REPORTS...SASKATCHEWAN

CITY           SKY/WX    TMP DP  RH WIND       PRES   REMARKS
SWIFT CURRENT  CLOUDY    34  32  93 SE18G25   29.54F WCI  23
REGINA         CLOUDY    34  30  86 E12       29.70F WCI  25
SASKATOON      CLOUDY    30  30 100 E7        29.70S WCI  23
VAL MARIE        N/A     36  30  80 SE12        N/A  WCI  27
ROCKGLEN         N/A     32  30  93 E13G18      N/A  WCI  22
ASSINIBOIA       N/A     34  32  93 E8          N/A  WCI  27
$$




USA.gov is the U.S. government's official web portal to all federal, state and local government web resources and services.